Find Starlink 30178

NORAD ID: 57447 Int'l Des: 2023-105 Owner: SPXS Country: US Constellation: starlink operational
LEOCIRCULAR

当前视图

正在加载3D地球...

About Starlink 30178

Starlink 30178 (NORAD 57447) is a starlink constellation satellite (v2 mini) launched Jul 24, 2023 by SPXS of US. It operates in LEO, CIRCULAR orbit with a mass of 730.00 kg.

即将过境

Passes for default location (London). Set your location on the main map for personalized predictions.

高度历史

Loading altitude history...

两行轨道根数

1 57447U 23105T 26264.61350015 -.00000710 00000-0 -16305-4 0 9998
2 57447 42.9972 233.5626 0000995 273.0261 87.0476 15.27571256175548
Epoch: Sep 21, 2026 • Age: 14 hours

当前状态

高度 486.6 km
远地点 / 近地点 N/A
速度 7.63 km/s
星下点 41.83°N, 136.02°W
发射日期 Jul 24, 2023
运行时间 3.1 years
类型 internet

技术详情

分类 Payload
质量 730.00 kg
干质量 700.00 kg
长度 0.30 m
跨度 29.00 m
形状 ? Box + pan
制造商 SPXS
平台类型 Starlink V2M
阶段状态 In Orbit
所有者/国家 SPXS/US

Most Searched